Freezing_Rain_Accumulation
0.00 0.00 0.00 0.00 0.00 0.00 0.00 0.00 0.00 0.00 0.00 0.00 0.00 0.00 0.00 0.00 0.00 0.00 0.00 0.00 0.00 0.00 0.00 0.00 0.00 0.00 0.00 0.00 0.00 0.00 0.00 0.00 0.00 0.00 0.00 0.00 0.00 0.00
0.00 0.00 0.00 0.00 0.00 0.00 0.00 0.00 0.00 0.00 0.02 0.00 0.00 0.00 0.00 0.00 0.00 0.00 0.00 0.00 0.00 0.00 0.00 0.00 0.00 0.00 0.00 0.00 0.00 0.00 0.00 0.00 0.00 0.00 0.00 0.00 0.00 0.00
0.00 0.00 0.00 0.00 0.00 0.00 0.00 0.00 0.00 0.00 0.00 0.05 0.00 0.00 0.00 0.00 0.00 0.00 0.00 0.00 0.00 0.00 0.00 0.00 0.00 0.00 0.00 0.00 0.00 0.00 0.00 0.00 0.00 0.00 0.00 0.00 0.00 0.00
0.00 0.00 0.00 0.00 0.00 0.00 0.00 0.00 0.00 0.00 0.00 0.03 0.00 0.00 0.00 0.00 0.00 0.00 0.00 0.00 0.00 0.00 0.00 0.00 0.00 0.00 0.00 0.00 0.00 0.00 0.00 0.00 0.00 0.00 0.00 0.00 0.00 0.00
0.00 0.00 0.00 0.00 0.00 0.00 0.00 0.00 0.00 0.00 0.00 0.00 0.00 0.00 0.00 0.00 0.00 0.00 0.00 0.00 0.00 0.00 0.00 0.00 0.00 0.00 0.00 0.00 0.00 0.00 0.00 0.00 0.00 0.00 0.00 0.00 0.00 0.00
0.00 0.00 0.00 0.00 0.00 0.00 0.00 0.00 0.00 0.00 0.00 0.00 0.00 0.00 0.00 0.00 0.00 0.00 0.02 0.00 0.03 0.00 0.00 0.00 0.00 0.00 0.00 0.00 0.00 0.00 0.00 0.00 0.00 0.00 0.00 0.00 0.00 0.00
0.00 0.00 0.00 0.00 0.00 0.00 0.00 0.00 0.00 0.00 0.00 0.00 0.00 0.00 0.13 0.19 0.05 0.02 0.09 0.07 0.23 0.03 0.13 0.08 0.01 0.00 0.00 0.00 0.00 0.00 0.00 0.00 0.00 0.00 0.00 0.00 0.00 0.00
0.00 0.00 0.00 0.00 0.00 0.00 0.00 0.00 0.00 0.00 0.00 0.00 0.09 0.07 0.31 0.05 0.03 0.03 0.16 0.25 0.22 0.06 0.07 0.21 0.05 0.00 0.00 0.00 0.00 0.00 0.00 0.00 0.00 0.00 0.00 0.00 0.00 0.00
0.00 0.00 0.00 0.00 0.00 0.00 0.00 0.00 0.00 0.02 0.12 0.02 0.01 0.04 0.05 0.04 0.04 0.06 0.12 0.13 0.14 0.14 0.09 0.27 0.08 0.21 0.00 0.00 0.00 0.00 0.00 0.00 0.00 0.00 0.00 0.00 0.00 0.00
0.03 0.03 0.03 0.18 0.18 0.09 0.07 0.27 0.21 0.02 0.08 0.00 0.00 0.00 0.02 0.00 0.00 0.00 0.06 0.16 0.41 0.32 0.14 0.62 0.43 0.83 0.16 0.00 0.00 0.00 0.00 0.00 0.00 0.00 0.00 0.00 0.00 0.00
0.15 0.16 0.14 0.29 0.00 0.00 0.08 0.08 0.08 0.17 0.01 0.01 0.01 0.02 0.02 0.02 0.07 0.03 0.06 0.15 0.40 0.42 0.29 0.26 0.76 1.08 0.63 0.87 0.01 0.00 0.00 0.00 0.00 0.00 0.00 0.00 0.00 0.00
0.23 0.15 0.16 0.24 0.16 0.16 0.11 0.01 0.23 0.20 0.10 0.11 0.31 0.34 0.18 0.13 0.10 0.06 0.06 0.18 0.76 0.57 0.32 0.56 0.50 0.65 0.33 0.44 0.27 0.30 0.00 0.00 0.00 0.00 0.00 0.00 0.00 0.00
0.32 0.47 0.05 0.10 0.07 0.07 0.07 0.08 0.26 0.38 0.36 0.28 0.27 0.52 0.42 0.16 0.23 0.16 0.08 0.16 0.18 0.42 0.08 0.26 0.56 0.42 0.26 0.21 0.07 0.08 0.24 0.04 0.00 0.00 0.00 0.00 0.00 0.00
0.52 0.18 0.67 0.16 0.10 0.26 0.28 0.26 0.29 0.24 0.30 0.28 0.32 0.46 0.35 0.44 0.42 0.40 0.36 0.19 0.19 0.17 0.10 0.23 0.35 0.34 0.40 0.23 0.08 0.34 0.25 0.16 0.01 0.19 0.31 0.00 0.00 0.00
1.01 1.04 0.73 0.95 0.43 0.35 0.40 0.31 0.16 0.12 0.13 0.21 0.36 0.34 0.29 0.32 0.26 0.31 0.33 0.33 0.42 0.35 0.34 0.15 0.31 0.21 0.18 0.06 0.32 0.31 0.24 0.22 0.17 0.08 0.00 0.00 0.04 0.00
0.78 0.72 0.67 0.61 0.57 0.79 0.65 0.52 0.16 0.10 0.07 0.11 0.09 0.11 0.13 0.26 0.16 0.04 0.16 0.04 0.27 0.16 0.04 0.00 0.00 0.02 0.01 0.01 0.02 0.16 0.12 0.10 0.10 0.05 0.03 0.00 0.00 0.00
0.62 0.43 0.39 0.40 0.42 0.62 0.61 0.63 0.60 0.60 0.39 0.24 0.13 0.30 0.21 0.17 0.16 0.06 0.05 0.09 0.07 0.10 0.12 0.08 0.06 0.00 0.00 0.01 0.10 0.10 0.06 0.00 0.00 0.00 0.00 0.06 0.00 0.00
0.03 0.00 0.00 0.00 0.00 0.00 0.24 0.19 0.45 0.46 0.47 0.81 0.81 0.68 0.39 0.20 0.14 0.12 0.13 0.14 0.39 0.23 0.15 0.06 0.05 0.32 0.28 0.22 0.00 0.00 0.00 0.00 0.00 0.00 0.00 0.00 0.02 0.00
0.00 0.00 0.00 0.00 0.00 0.00 0.00 0.00 0.00 0.00 0.00 0.32 0.29 0.26 0.77 0.63 0.56 0.14 0.34 0.31 0.25 0.22 0.23 0.13 0.05 0.04 0.12 0.50 0.49 0.00 0.06 0.12 0.09 0.09 0.00 0.00 0.00 0.00
0.00 0.00 0.00 0.00 0.00 0.00 0.00 0.00 0.00 0.00 0.00 0.00 0.00 0.00 0.00 0.16 0.62 0.53 0.48 0.47 0.28 0.00 0.27 0.16 0.15 0.10 0.07 0.68 0.71 0.59 0.00 0.00 0.29 0.08 0.12 0.20 0.17 0.23
0.00 0.00 0.00 0.00 0.00 0.00 0.00 0.00 0.00 0.00 0.00 0.00 0.00 0.00 0.00 0.00 0.00 0.00 0.00 0.10 0.09 0.11 0.13 0.16 0.24 0.22 0.17 0.15 0.82 0.61 0.55 0.00 0.00 0.10 0.16 0.19 0.05 0.14
0.00 0.00 0.00 0.00 0.00 0.00 0.00 0.00 0.00 0.00 0.00 0.00 0.00 0.00 0.00 0.00 0.00 0.00 0.00 0.00 0.00 0.00 0.00 0.06 0.17 0.06 0.15 0.26 0.16 0.75 0.83 0.66 0.49 0.60 0.63 0.31 0.28 0.15
0.00 0.00 0.00 0.00 0.00 0.00 0.00 0.00 0.00 0.00 0.00 0.00 0.00 0.00 0.00 0.00 0.00 0.00 0.00 0.00 0.00 0.00 0.00 0.00 0.00 0.08 0.00 0.00 0.30 0.42 0.25 0.26 0.00 0.03 0.03 0.41 0.31 0.12